GFSMA_250_rhum_075.txt.gz
RH
95 100 100 100 100 100 66 70 53 44 42 44 38 29 32 52 51 54 54 51 43 55 51 61 81 66 57 76 85 79 99 100 100 100 100 100 93 99 100 89 70 69 71
86 100 100 100 100 100 99 62 95 49 60 63 59 52 78 71 76 76 61 51 51 62 57 71 68 67 70 84 99 100 100 100 100 100 100 98 95 72 66 51 42 37 35
83 81 100 100 100 100 100 97 85 90 80 85 93 100 94 84 71 58 61 65 76 84 79 67 87 92 94 100 100 100 100 100 99 100 84 81 74 61 49 39 35 35 42
100 95 100 100 100 100 100 100 100 100 100 100 99 100 88 70 65 74 86 91 83 67 81 94 100 100 100 100 93 100 100 100 100 95 84 80 68 40 36 33 30 29 26
100 100 100 100 100 100 99 96 100 100 100 100 96 92 72 49 65 78 85 87 98 89 100 100 100 100 98 90 100 100 100 91 82 87 54 43 37 34 34 31 31 32 38
100 100 100 99 100 92 87 85 83 85 100 100 81 77 73 64 81 100 100 86 88 73 100 100 100 99 100 100 100 100 86 88 62 41 38 42 42 42 42 42 44 46 48
72 84 100 100 74 80 54 54 83 100 100 93 88 100 100 100 100 96 100 100 100 100 100 100 100 100 100 88 84 100 65 44 32 40 46 51 47 43 45 50 48 58 75
99 100 100 100 100 99 100 100 100 94 100 94 100 100 98 100 100 100 100 100 100 100 100 100 99 89 91 98 76 62 50 29 30 59 60 52 51 52 53 62 79 87 95
100 92 98 100 100 100 100 100 100 100 100 100 100 100 100 100 100 100 100 100 100 100 88 79 74 63 48 36 31 29 33 34 77 86 66 51 53 58 81 89 89 94 97
100 97 100 100 100 100 100 100 100 100 100 97 97 100 100 100 100 100 100 100 96 87 67 58 43 42 32 28 25 55 79 95 96 87 66 56 61 76 90 98 100 100 99
95 96 100 100 100 100 100 100 100 100 100 100 100 100 100 100 100 100 100 85 74 46 33 27 30 32 33 56 73 99 100 100 91 82 61 61 74 82 89 99 99 99 100
93 98 100 100 100 100 100 100 100 100 100 100 100 100 100 100 100 98 87 71 40 30 30 28 31 33 49 79 100 100 100 94 78 65 67 79 85 98 99 95 97 100 96
100 100 100 100 100 100 100 100 100 100 100 100 100 96 96 94 89 74 64 45 40 26 27 30 56 72 98 100 100 100 94 79 57 68 81 87 94 90 94 91 89 98 84
100 100 100 100 100 100 100 100 100 88 83 90 78 77 73 69 66 54 46 36 32 33 27 58 76 100 100 100 100 79 68 60 74 80 83 89 95 95 97 92 100 95 91
100 100 100 100 100 97 88 78 71 68 68 59 51 60 59 68 56 40 29 28 27 26 64 100 100 100 100 76 71 60 57 71 74 79 82 83 84 93 99 100 98 96 98
83 82 85 87 81 77 70 71 70 76 80 84 75 76 59 43 28 25 32 34 42 91 100 100 100 98 90 73 60 63 73 75 83 80 79 81 94 94 98 100 100 99 86
78 56 55 57 50 55 82 94 99 97 69 46 34 28 29 30 28 36 70 97 100 100 100 100 99 76 74 68 66 71 81 92 94 92 92 92 97 99 100 96 96 95 90
71 68 73 82 76 76 68 94 86 60 47 34 35 39 37 50 73 100 100 100 100 100 100 95 82 74 68 70 80 89 98 100 97 96 93 96 92 100 100 97 97 91 95
72 92 100 96 83 68 64 81 74 60 43 41 51 56 67 100 100 100 100 100 100 100 92 78 69 75 80 81 90 95 100 100 99 99 100 96 99 100 100 100 97 94 87
100 100 100 99 77 60 56 49 42 37 48 63 87 100 100 100 100 100 100 100 90 82 77 73 87 90 89 89 98 100 100 100 100 99 100 92 95 97 92 100 91 80 90
90 83 82 64 68 67 49 42 41 60 99 100 100 100 100 100 100 93 75 68 66 68 68 75 84 94 99 100 98 95 100 96 100 100 96 99 78 82 85 92 84 88 83
64 60 54 53 53 75 100 100 100 70 55 48 54 54 64 59 52 52 54 56 66 74 73 69 80 92 100 100 91 100 95 100 100 97 94 94 58 76 80 90 88 82 85
73 76 77 79 76 59 44 41 42 45 48 57 57 59 60 58 60 65 56 64 66 64 61 84 90 88 97 94 99 96 100 100 100 97 74 72 51 63 70 79 72 71 75
53 49 45 42 43 43 46 52 58 61 64 61 68 68 73 72 67 68 69 59 57 65 67 94 100 97 96 90 89 100 100 97 100 90 69 50 55 60 65 78 74 67 61
74 71 64 62 58 55 62 77 84 75 66 64 60 61 72 81 83 71 71 75 79 69 68 100 97 95 85 88 99 100 92 90 91 88 74 51 61 60 67 69 64 54 47
76 70 80 88 91 86 83 90 100 83 76 69 70 79 100 98 98 94 84 82 85 76 72 100 90 96 93 100 100 94 92 91 92 87 68 50 48 49 54 74 71 43 31

GFSMA_250_rhum_078.txt.gz
RH
100 100 100 91 78 100 100 97 100 99 68 68 50 28 36 44 42 38 39 31 36 42 45 34 42 42 58 51 63 73 83 88 99 93 80 98 100 100 100 99 74 58 63
100 100 100 100 100 100 100 96 100 85 51 39 33 33 59 52 37 41 52 57 49 42 48 48 48 61 71 87 84 90 94 96 100 100 100 100 100 92 100 75 60 37 35
100 100 100 96 100 89 100 100 94 100 63 58 87 100 79 56 54 59 61 52 48 48 55 58 65 92 100 100 100 100 94 100 100 100 100 100 100 98 66 39 36 42 32
100 100 100 100 100 100 100 100 100 98 89 100 100 99 100 71 68 69 52 55 51 62 66 91 100 100 100 100 100 100 100 100 100 100 100 98 75 58 45 37 35 40 31
100 100 100 100 90 100 98 100 100 100 100 100 97 72 66 74 68 67 69 94 78 90 100 100 100 100 100 100 100 100 100 100 100 100 73 69 61 57 44 37 53 47 40
100 89 100 100 100 64 87 100 100 100 100 99 90 72 70 54 76 92 97 100 100 98 100 100 100 100 100 100 100 100 100 97 82 54 37 42 53 61 62 60 42 49 48
97 100 100 100 88 69 100 98 100 100 99 89 79 65 88 89 100 100 90 100 100 100 100 100 100 100 100 100 100 100 77 57 39 38 35 42 55 74 74 54 50 50 48
100 67 75 85 100 99 74 88 59 57 67 50 50 64 94 100 100 100 100 100 100 100 100 100 100 100 100 100 85 53 45 38 41 60 58 95 94 65 44 46 47 47 53
100 94 84 84 51 56 70 49 59 98 98 85 92 100 100 98 100 100 100 100 100 100 100 100 100 100 91 58 39 33 26 32 44 56 91 91 56 56 46 54 48 54 69
100 86 100 88 100 100 100 100 100 100 100 100 100 100 100 99 100 100 100 100 100 100 100 100 100 96 70 47 39 27 27 35 62 92 99 70 55 48 53 53 57 71 84
100 100 100 100 89 73 100 100 100 97 100 100 100 100 100 100 100 100 100 100 100 100 100 100 96 81 56 37 29 29 34 71 100 100 94 80 55 59 62 62 74 71 74
100 100 100 100 100 100 100 100 100 100 100 100 100 100 100 100 100 100 100 100 100 100 99 98 89 80 50 36 30 34 65 100 100 82 66 62 60 62 63 79 78 90 91
100 100 100 100 100 100 100 100 100 95 100 100 100 100 100 100 100 100 100 98 100 98 96 74 44 44 48 40 63 96 100 100 100 83 62 61 64 72 91 85 92 93 96
100 100 94 98 100 100 98 100 100 100 100 100 100 100 100 99 97 100 94 75 92 69 58 40 46 64 86 82 100 100 100 100 86 69 64 71 75 95 98 89 96 98 100
100 100 100 100 100 100 100 100 96 88 96 95 100 97 100 93 80 86 93 94 76 57 41 48 60 96 100 100 100 100 97 79 61 78 70 85 100 98 85 99 100 100 100
100 100 100 100 100 100 100 100 100 98 98 89 78 89 95 78 63 34 31 33 39 47 50 51 86 100 100 100 100 100 80 68 73 73 89 100 100 97 100 100 95 100 100
100 100 99 96 83 76 70 61 62 63 60 65 67 79 69 46 38 50 58 58 46 59 68 100 100 100 100 100 72 59 68 83 79 84 100 100 100 100 100 97 100 100 96
100 100 94 73 57 62 64 64 64 61 66 77 91 85 60 51 60 68 66 59 90 100 100 100 100 100 94 68 66 76 81 78 90 100 100 93 95 97 98 87 100 97 93
93 96 86 85 76 72 90 90 89 87 82 73 71 60 62 71 87 74 95 100 100 100 100 100 84 73 54 64 71 71 82 87 92 92 95 100 96 89 91 98 92 89 98
94 81 78 92 98 100 100 100 100 100 100 89 75 70 79 82 89 100 100 100 100 81 50 53 55 62 65 71 77 76 73 65 71 90 100 96 83 94 89 85 94 92 91
86 91 92 98 100 100 100 100 94 96 96 84 89 85 61 51 64 59 53 52 64 74 80 79 81 82 83 77 78 75 77 67 97 92 99 88 91 98 96 91 92 91 98
50 68 75 87 100 96 89 82 79 63 58 43 36 39 46 51 56 59 72 78 73 93 95 100 100 92 85 78 74 79 93 84 91 95 97 94 97 94 88 100 97 93 98
43 38 45 50 58 58 57 53 45 39 39 43 49 55 66 72 78 87 96 96 77 89 100 100 99 84 85 81 92 97 100 96 95 100 96 94 100 97 100 100 100 100 92
47 54 52 53 54 53 51 52 52 55 58 64 68 78 83 85 89 83 85 90 91 91 100 96 84 83 94 94 94 92 100 100 83 99 93 93 97 100 100 99 90 83 65
100 70 61 69 59 61 67 72 75 73 72 78 84 92 89 99 100 93 100 83 75 70 76 80 88 100 98 100 100 92 93 92 87 95 98 99 97 98 98 91 88 76 62
99 99 92 76 67 87 96 94 94 88 80 82 75 94 91 89 86 83 80 78 92 95 100 100 98 100 99 98 100 95 94 89 98 97 97 100 100 92 94 95 83 59 43

GFSMA_250_rhum_084.txt.gz
RH
98 100 100 97 69 49 47 29 86 100 100 100 80 97 88 67 55 43 34 31 43 32 23 21 25 24 30 24 33 42 74 83 81 93 99 100 100 100 100 90 75 88 100
100 100 94 86 70 62 54 71 100 100 100 100 100 100 89 78 65 39 34 54 51 44 32 35 29 38 37 39 39 74 97 96 98 100 100 100 100 100 100 93 74 91 100
100 100 91 91 76 77 89 96 99 100 100 100 88 82 88 84 90 49 31 50 68 73 43 36 41 54 51 45 66 100 100 100 100 100 100 100 100 100 100 100 100 99 100
100 99 100 99 100 100 95 100 93 77 100 100 98 89 100 100 100 72 47 49 83 68 76 54 42 48 51 57 92 100 100 100 100 100 100 100 100 100 100 100 100 96 60
100 100 100 100 94 98 94 100 100 100 88 88 99 100 94 100 100 74 55 92 100 89 70 32 42 50 72 87 100 100 100 100 100 100 100 100 100 100 100 100 94 63 41
100 100 100 100 86 100 100 100 100 100 100 99 98 99 92 78 74 54 100 100 100 79 31 33 57 93 99 100 100 100 100 100 100 100 100 100 100 100 98 92 72 56 53
100 100 99 100 100 77 90 100 100 100 100 100 100 99 69 73 62 93 100 100 62 52 38 33 81 100 100 100 100 100 100 100 100 100 100 100 100 100 100 92 80 60 53
100 100 100 93 83 76 81 89 91 98 100 100 100 100 100 100 94 95 86 69 48 35 32 46 98 100 100 100 100 100 100 100 100 100 100 100 98 93 93 93 62 57 78
100 100 100 100 100 100 98 99 100 94 100 100 100 100 95 100 78 72 72 50 46 38 64 95 100 100 100 100 100 100 100 100 100 100 100 100 100 76 52 46 44 77 66
100 100 100 100 100 100 100 100 100 100 100 100 100 100 100 82 78 48 54 48 43 66 99 100 100 100 100 100 100 100 100 100 100 100 90 72 68 55 55 59 97 92 56
100 100 100 100 100 100 100 100 100 100 95 99 99 96 64 58 60 48 66 70 92 98 100 100 100 100 100 100 100 100 100 100 84 76 69 72 67 41 67 96 65 49 46
100 100 100 100 100 86 75 77 80 75 84 84 76 64 54 48 50 64 77 100 100 100 100 100 100 100 100 100 100 99 72 62 62 69 78 88 45 50 71 86 52 53 60
100 100 100 100 100 99 99 97 99 96 95 81 70 53 62 76 91 99 100 100 100 100 100 100 100 100 100 100 87 73 39 38 37 48 47 45 37 56 68 70 59 66 78
100 100 100 100 100 100 100 92 97 100 100 98 88 97 100 100 100 100 100 100 100 100 100 100 100 100 94 78 60 42 40 47 57 56 43 33 60 100 82 72 83 85 81
100 100 100 100 100 100 100 100 100 100 100 100 100 100 100 100 100 100 100 100 100 100 100 100 98 66 55 57 55 47 48 58 52 40 36 78 74 89 73 72 76 84 84
100 100 100 100 100 100 100 100 100 100 100 100 100 100 100 100 100 100 100 100 100 100 97 84 60 50 44 56 53 58 51 44 37 45 62 80 87 81 80 84 100 78 84
54 63 75 89 99 100 100 100 100 100 100 100 100 100 100 100 100 100 100 95 86 74 55 52 57 52 62 70 69 40 34 39 49 78 89 87 81 88 99 100 97 90 94
67 80 67 53 64 87 100 100 100 99 100 100 100 100 100 100 78 62 48 43 51 55 62 52 61 69 80 43 37 37 44 58 72 98 98 100 100 100 100 100 100 98 92
30 46 70 98 100 79 62 80 98 100 100 100 90 73 59 44 48 56 56 58 59 63 60 66 74 98 44 45 52 58 74 86 99 100 100 100 100 100 100 100 100 99 96
45 36 32 34 50 84 98 100 98 91 97 81 71 69 70 76 69 72 78 80 66 59 73 97 96 45 58 71 69 84 99 100 100 100 97 99 99 100 100 98 80 72 76
95 53 61 69 43 36 37 42 48 52 59 64 72 83 81 77 68 62 62 78 80 86 97 55 46 66 76 89 100 100 100 86 80 84 90 93 78 71 76 70 66 83 98
82 86 74 71 96 82 73 64 54 44 38 50 68 65 65 58 65 76 88 90 68 50 46 56 74 90 90 95 100 89 88 98 91 80 68 80 66 62 71 70 90 99 80
81 79 84 100 100 98 100 100 99 88 70 63 51 43 44 47 47 47 52 55 57 61 70 90 100 99 100 100 94 100 100 100 98 94 100 81 79 86 91 98 100 85 86
88 80 84 81 94 60 55 82 100 100 100 87 77 71 60 59 59 55 62 82 80 77 83 92 100 100 100 100 100 100 100 100 100 100 99 99 95 98 100 88 87 98 100
88 99 100 100 93 80 78 82 84 93 100 100 100 100 100 100 100 100 97 100 100 100 100 100 100 100 100 100 100 100 100 100 100 100 94 84 76 79 70 92 100 100 100
83 75 78 100 100 100 100 80 70 64 56 73 80 99 100 100 100 100 100 100 100 100 100 100 100 100 100 100 100 100 100 99 88 95 86 60 67 82 98 100 100 100 100

GFSMA_250_rhum_087.txt.gz
RH
91 76 100 100 96 100 85 44 43 44 53 92 99 100 82 52 52 59 51 53 45 38 40 39 26 25 24 29 26 26 33 42 52 72 96 100 100 100 99 87 84 83 97
100 74 61 81 87 100 84 58 54 52 43 80 99 97 83 59 63 79 83 70 58 36 56 36 34 32 27 28 28 30 46 67 86 92 100 100 100 99 90 90 80 85 86
100 96 100 100 87 100 81 66 68 49 86 84 100 90 83 98 96 90 85 91 86 50 59 54 37 36 55 60 32 35 63 58 75 84 100 100 100 98 72 76 93 94 88
100 100 98 100 89 92 79 92 79 58 100 85 91 100 100 93 100 100 100 100 97 87 60 53 48 70 69 47 31 40 70 74 91 100 100 99 99 80 92 87 84 95 100
100 100 100 100 98 98 98 100 86 88 100 100 100 100 100 100 100 100 100 96 58 44 48 48 100 87 83 52 41 34 62 93 100 100 100 100 100 91 85 96 100 100 100
96 100 100 100 92 100 100 100 100 97 100 100 90 100 100 100 89 100 100 57 44 70 56 40 54 78 64 61 45 60 95 100 100 98 100 100 100 95 100 100 100 100 100
80 100 100 100 91 100 100 94 81 78 64 64 88 100 91 83 89 72 66 88 100 64 47 61 80 70 62 57 48 100 99 100 100 100 100 96 100 100 100 100 100 84 73
100 100 100 100 100 98 96 95 80 77 100 66 60 37 57 60 79 58 87 76 100 80 75 65 68 74 68 69 82 100 100 100 100 100 98 100 100 100 100 98 97 78 61
100 100 100 100 100 100 100 95 78 81 94 97 100 100 90 100 98 100 100 100 100 100 89 76 89 84 79 91 100 100 100 100 100 100 100 100 100 94 73 69 75 82 81
100 100 100 100 100 100 100 100 100 98 92 96 59 76 98 100 100 100 100 100 98 98 100 83 84 83 98 100 100 100 100 100 100 100 100 100 98 75 67 83 77 66 48
100 99 100 100 100 100 100 100 100 100 100 99 91 99 99 100 100 100 100 100 100 97 74 96 98 98 95 96 94 90 96 100 100 100 100 89 81 53 47 51 51 50 45
100 100 100 100 100 100 100 100 100 100 94 81 78 100 100 100 100 93 100 100 100 99 98 76 74 93 96 97 100 100 100 100 100 94 76 71 52 51 52 56 58 48 47
100 100 100 100 100 100 100 100 100 100 100 100 100 100 100 100 100 100 100 100 99 81 77 100 78 99 98 100 100 100 100 100 91 70 70 57 57 67 69 50 40 38 42
100 100 100 100 100 100 100 100 100 100 100 100 100 100 100 100 100 100 100 100 96 76 88 100 100 100 100 100 100 100 100 94 80 73 61 58 59 64 49 43 38 45 74
100 100 100 100 100 100 100 100 100 100 100 100 80 97 87 99 100 98 100 100 100 100 100 100 100 100 100 100 100 100 91 67 59 59 66 77 54 38 42 47 50 79 78
100 100 100 100 100 100 97 100 100 100 100 100 100 100 100 100 100 100 100 100 100 100 100 100 100 100 100 97 93 76 69 58 60 71 51 39 45 47 53 51 69 76 89
49 97 100 100 100 100 100 100 100 100 100 100 100 100 100 100 100 100 100 100 100 100 100 100 91 82 72 59 49 52 54 54 56 47 44 49 53 57 55 57 79 92 100
33 36 52 91 100 100 100 100 100 100 100 100 100 100 100 100 100 100 100 100 100 100 100 77 55 54 52 58 54 62 60 61 59 48 57 52 56 56 54 62 90 100 100
39 41 41 36 44 53 56 65 70 70 78 97 100 100 100 100 100 100 100 100 97 70 49 47 52 56 61 58 67 68 82 55 46 69 81 70 66 70 90 93 98 96 90
58 54 54 47 51 43 42 46 57 74 75 69 71 84 91 90 80 82 84 70 59 57 59 67 68 64 66 77 84 87 48 47 69 88 100 97 91 92 66 77 84 100 96
37 40 73 87 64 43 50 60 65 54 44 51 69 81 80 76 71 68 62 56 57 68 65 64 68 53 47 49 50 53 68 88 100 98 91 89 94 82 86 93 88 86 78
51 38 38 44 63 64 54 48 64 87 100 90 73 60 54 48 49 46 44 52 62 40 42 45 48 51 56 64 75 88 98 81 98 95 67 71 84 100 100 100 100 100 97
60 52 46 55 64 46 65 72 100 78 46 53 65 84 100 91 77 47 44 52 52 57 56 56 56 60 73 84 84 90 100 100 92 97 91 100 98 100 100 100 100 98 88
67 53 58 47 47 82 56 48 77 94 85 71 58 56 86 90 97 100 100 96 83 73 84 95 99 100 100 100 100 100 100 100 100 94 82 90 93 94 92 87 75 66 66
80 71 64 53 48 66 95 83 70 85 78 74 75 65 63 62 70 80 94 96 75 76 86 91 89 92 93 99 100 95 86 78 81 83 93 98 96 88 81 70 62 67 75
82 80 72 69 61 48 61 72 69 70 76 78 96 100 100 100 98 68 58 56 67 82 86 88 85 80 80 71 84 96 98 99 100 100 98 83 69 71 72 65 73 75 73